Flag for U.S.A. Weather past 2 weeks in Sedona, Arizona, U.S.A.

Now
68 °F

Clear.


Feels Like: 68 °F
Forecast: 53 / 78 °F
Wind: 5 mph from Northwest

Location: Sedona Airport

Current Time: Mar 26, 2015 at 7:19:39 PM

Latest Report: Mar 26, 2015 at 6:55 PM


Visibility: 10 mi

Pressure: 30.21 "Hg

Humidity: 14%

Dew point: 18 °F

Location of SedonaLocation

Historic Weather in Sedona — Graph

°F

Sedona temperature yesterday

Maximum temperature yesterday: 73 °F (at 3:15 PM)
Minimum temperature yesterday: 48 °F (at 6:15 AM)
Average temperature yesterday: 60 °F

Past Weeks' High & Low Weather Summary

 TemperatureHumidityPressure
High77 °F (Mar 15, 1:55 PM)94% (Mar 19, 3:15 PM)30.35 "Hg (Mar 19, 3:15 PM)
Low43 °F (Mar 20, 5:55 AM)12% (Mar 15, 5:55 PM)30.01 "Hg (Mar 18, 4:35 PM)
Average59 °F36%30.15 "Hg
* Reported Mar 11 6:15 PM — Mar 26 6:15 PM, Sedona, Weather by CustomWeather, © 2015

Note: Actual official high and low records may vary slightly from our data, if they occured in-between our weather recording intervals... More about our weather records

Advertising

Sedona weather history for previous 24 hours

 ConditionsComfort  
Time TempWeatherWind HumidityBarometerVisibility
6:15 PM
Thu, Mar 26
70 °FSunny.5 mph15%30.21 "Hg10 mi
5:55 PM72 °FSunny.No wind14%30.20 "Hg10 mi
5:35 PM72 °FSunny.No wind14%30.20 "Hg10 mi
5:15 PM72 °FSunny.No wind14%30.20 "Hg10 mi
4:55 PM73 °FSunny.3 mph13%30.20 "Hg10 mi
4:35 PM72 °FSunny.No wind14%30.20 "Hg10 mi
4:15 PM73 °FSunny.3 mph14%30.20 "Hg10 mi
3:55 PM73 °FSunny.5 mph14%30.20 "Hg10 mi
3:15 PM73 °FSunny.3 mph13%30.21 "Hg10 mi
2:55 PM73 °FSunny.3 mph13%30.21 "Hg10 mi
2:15 PM73 °FSunny.No wind13%30.23 "Hg10 mi
1:55 PM70 °FSunny.3 mph13%30.24 "Hg10 mi
1:35 PM70 °FSunny.No wind13%30.25 "Hg10 mi
1:15 PM72 °FSunny.7 mph14%30.26 "Hg10 mi
12:55 PM72 °FSunny.5 mph14%30.28 "Hg10 mi
12:35 PM70 °FSunny.3 mph13%30.28 "Hg10 mi
12:15 PM68 °FSunny.5 mph13%30.29 "Hg10 mi
11:55 AM68 °FSunny.12 mph14%30.30 "Hg10 mi
11:35 AM68 °FSunny.12 mph13%30.30 "Hg10 mi
11:15 AM68 °FSunny.9 mph13%30.30 "Hg10 mi
10:55 AM66 °FSunny.10 mph14%30.30 "Hg10 mi
10:35 AM64 °FSunny.14 mph14%30.30 "Hg10 mi
10:15 AM64 °FSunny.14 mph14%30.30 "Hg10 mi
9:55 AM63 °FSunny.9 mph15%30.29 "Hg10 mi
9:35 AM61 °FSunny.14 mph16%30.29 "Hg10 mi
9:15 AM61 °FSunny.8 mph15%30.29 "Hg10 mi
8:55 AM59 °FSunny.12 mph16%30.29 "Hg10 mi
8:35 AM57 °FSunny.9 mph17%30.28 "Hg10 mi
8:15 AM55 °FSunny.14 mph16%30.28 "Hg10 mi
7:55 AM55 °FSunny.10 mph16%30.28 "Hg10 mi
7:35 AM54 °FSunny.9 mph18%30.27 "Hg10 mi
7:15 AM52 °FSunny.9 mph19%30.27 "Hg10 mi
6:55 AM50 °FSunny.13 mph20%30.26 "Hg10 mi
6:35 AM50 °FSunny.12 mph20%30.26 "Hg10 mi
6:15 AM50 °FClear.10 mph20%30.25 "Hg10 mi
5:55 AM50 °FClear.9 mph20%30.25 "Hg10 mi
5:35 AM50 °FClear.15 mph20%30.24 "Hg10 mi
5:15 AM52 °FClear.14 mph17%30.24 "Hg10 mi
4:55 AM50 °FClear.12 mph19%30.24 "Hg10 mi
4:35 AM52 °FClear.13 mph17%30.23 "Hg10 mi
4:15 AM52 °FClear.10 mph17%30.23 "Hg10 mi
3:55 AM50 °FClear.10 mph19%30.23 "Hg10 mi
3:15 AM52 °FClear.10 mph17%30.23 "Hg10 mi
2:55 AM52 °FClear.17 mph19%30.23 "Hg10 mi
2:35 AM52 °FClear.12 mph20%30.22 "Hg10 mi
2:15 AM54 °FClear.15 mph21%30.23 "Hg10 mi
1:55 AM54 °FClear.12 mph22%30.23 "Hg10 mi
1:15 AM54 °FClear.9 mph26%30.23 "Hg10 mi
12:55 AM55 °FClear.8 mph26%30.23 "Hg10 mi
12:35 AM55 °FClear.9 mph26%30.22 "Hg10 mi
12:15 AM55 °FClear.5 mph26%30.22 "Hg10 mi
11:55 PM
Wed, Mar 25
55 °FClear.8 mph26%30.21 "Hg10 mi
11:35 PM57 °FClear.9 mph25%30.21 "Hg10 mi
11:15 PM55 °FClear.9 mph26%30.21 "Hg10 mi
10:55 PM57 °FClear.10 mph25%30.21 "Hg10 mi
10:15 PM57 °FClear.13 mph25%30.20 "Hg10 mi
9:55 PM59 °FClear.10 mph23%30.19 "Hg10 mi
9:35 PM59 °FClear.13 mph23%30.19 "Hg10 mi
9:15 PM59 °FClear.16 mph23%30.18 "Hg10 mi
8:55 PM59 °FClear.14 mph23%30.17 "Hg10 mi
8:35 PM61 °FClear.16 mph22%30.17 "Hg10 mi
8:15 PM61 °FClear.14 mph22%30.15 "Hg10 mi
7:55 PM63 °FClear.10 mph20%30.14 "Hg10 mi
7:35 PM63 °FClear.10 mph22%30.14 "Hg10 mi
7:15 PM64 °FClear.12 mph21%30.14 "Hg10 mi
Weather by CustomWeather, © 2015

See weather overviewHow to use our weather pages